Home > Weather > Cairo > Past weeks

Flag for Egypt Weather for the Past 2 Weeks in Cairo, Egypt

Now
99 °F

Clear.


Feels Like: 96 °F
Forecast: 71 / 87 °F
Wind: 15 mph from Northwest

Location: Cairo Airport

Current Time: May 3, 2016 at 3:08:13 PM

Latest Report: May 3, 2016 at 2:30 PM


Visibility: 4 mi

Pressure: 29.74 "Hg

Humidity: 21%

Dew Point: 52 °F

Location of CairoLocation

Historic Weather in Cairo — Graph

°F

Cairo Temperature Yesterday

Maximum temperature yesterday: 93 °F (at 1:00 PM)
Minimum temperature yesterday: 64 °F (at 5:30 AM)
Average temperature yesterday: 81 °F

High & Low Weather Summary for the Past Weeks

 TemperatureHumidityPressure
High108 °F (Apr 26, 3:00 PM)100% (Apr 19, 5:00 AM)30.07 "Hg (Apr 19, 5:00 AM)
Low64 °F (Apr 19, 5:00 AM)7% (Apr 24, 2:00 PM)29.56 "Hg (Apr 24, 6:30 PM)
Average81 °F42%29.88 "Hg
* Reported Apr 18 1:00 PM — May 3 1:30 PM, Cairo, Weather by CustomWeather, © 2016

Note: Actual official high and low records may vary slightly from our data, if they occured in-between our weather recording intervals... More about our weather records

Advertising

Cairo Weather History for the Previous 24 Hours

Scroll right to see more
 ConditionsComfort  
Time TempWeatherWind HumidityBarometerVisibility
1:30 PM
Tue, May 3
99 °FClear.13 mph27%29.74 "Hg4 mi
1:00 PM97 °FSandstorm.12 mph30%29.74 "Hg2 mi
12:30 PM97 °FSandstorm.12 mph32%29.74 "Hg2 mi
12:00 PM93 °FHaze.6 mph36%29.74 "Hg2 mi
11:30 AM91 °FHaze.5 mph38%29.74 "Hg2 mi
11:00 AM90 °FHaze.9 mph41%29.77 "Hg2 mi
10:30 AM90 °FHaze.6 mph41%29.77 "Hg2 mi
10:00 AM88 °FHaze.3 mph38%29.77 "Hg2 mi
9:30 AM88 °FHaze.2 mph38%29.77 "Hg2 mi
9:00 AM84 °FHaze.2 mph40%29.80 "Hg2 mi
8:30 AM84 °FSunny.3 mph40%29.80 "Hg10 mi
8:00 AM82 °FSunny.5 mph30%29.80 "Hg10 mi
7:30 AM81 °FPartly sunny.3 mph39%29.77 "HgN/A
7:00 AM79 °FPartly sunny.No wind42%29.77 "HgN/A
6:30 AM77 °FPartly sunny.1 mph47%29.77 "HgN/A
6:00 AM77 °FPartly sunny.6 mph47%29.77 "HgN/A
5:30 AM75 °FPartly sunny.8 mph50%29.77 "HgN/A
5:00 AM75 °FPassing clouds.6 mph50%29.80 "HgN/A
4:30 AM75 °FClear.13 mph57%29.80 "Hg10 mi
4:00 AM75 °FClear.13 mph57%29.80 "Hg10 mi
3:30 AM75 °FClear.15 mph54%29.80 "Hg10 mi
3:00 AM75 °FClear.15 mph54%29.80 "Hg10 mi
2:30 AM75 °FClear.15 mph54%29.80 "Hg10 mi
2:00 AM75 °FClear.15 mph54%29.80 "Hg10 mi
1:30 AM75 °FPassing clouds.16 mph54%29.83 "HgN/A
1:00 AM75 °FPassing clouds.16 mph54%29.83 "HgN/A
12:00 AM75 °FPassing clouds.17 mph50%29.86 "HgN/A
11:00 PM
Mon, May 2
77 °FPassing clouds.17 mph42%29.89 "HgN/A
10:30 PM77 °FPassing clouds.16 mph44%29.89 "HgN/A
10:00 PM77 °FPassing clouds.18 mph44%29.92 "HgN/A
9:30 PM79 °FPassing clouds.20 mph39%29.92 "HgN/A
9:00 PM79 °FClear.20 mph42%29.89 "Hg10 mi
8:30 PM81 °FClear.20 mph48%29.89 "Hg10 mi
8:00 PM81 °FClear.20 mph48%29.86 "Hg10 mi
7:30 PM82 °FClear.18 mph48%29.86 "Hg10 mi
7:00 PM82 °FClear.18 mph48%29.86 "Hg10 mi
6:30 PM86 °FSunny.17 mph43%29.86 "Hg10 mi
6:00 PM90 °FSunny.15 mph27%29.86 "Hg10 mi
5:30 PM91 °FSunny.13 mph24%29.86 "Hg10 mi
5:00 PM91 °FSunny.13 mph23%29.83 "Hg10 mi
4:30 PM93 °FSunny.13 mph21%29.86 "Hg10 mi
4:00 PM93 °FSunny.12 mph21%29.83 "Hg10 mi
3:30 PM93 °FSunny.9 mph23%29.83 "Hg10 mi
3:00 PM93 °FSunny.13 mph21%29.86 "Hg10 mi
Weather by CustomWeather, © 2016

See weather overviewHow to use our weather pages